Location: Munderkingen
(48.2395°N, 9.6433°E)
Time: 02:19:10
(UTC+02:00)

ISS - Visible Passes

Search period start: 23 July 2018 00:00
Search period end: 02 August 2018 00:00
Orbit: 402 x 408 km, 51.6° (Epoch: 23 July)

Date Brightness Start Highest point End Pass type
(mag) Time Alt. Az. Time Alt. Az. Time Alt. Az.
23 Jul -2.8 01:15:47 10° WNW 01:18:59 47° N 01:20:53 21° ENE visible
23 Jul -1.8 02:52:19 10° WNW 02:53:22 19° WNW 02:53:22 19° WNW visible
23 Jul -3.5 22:46:43 10° WSW 22:50:00 69° NNW 22:53:17 10° ENE visible
24 Jul -2.7 00:23:36 10° WNW 00:26:47 44° N 00:29:12 15° ENE visible
24 Jul -2.1 02:00:11 10° WNW 02:01:47 26° WNW 02:01:47 26° WNW visible
24 Jul -3.9 21:54:35 10° WSW 21:57:51 85° SSE 22:01:09 10° ENE visible
24 Jul -2.7 23:31:22 10° WNW 23:34:32 44° N 23:37:43 10° ENE visible
25 Jul -3.1 01:08:03 10° WNW 01:10:50 53° NNW 01:10:50 53° NNW visible
25 Jul -2.9 22:39:06 10° W 22:42:18 50° N 22:45:31 10° ENE visible
26 Jul -3.0 00:15:54 10° WNW 00:19:07 50° N 00:20:03 36° ENE visible
26 Jul -1.0 01:52:26 10° WNW 01:52:40 12° WNW 01:52:40 12° WNW visible
26 Jul -3.3 21:46:50 10° W 21:50:04 62° NNW 21:53:21 10° ENE visible
26 Jul -2.7 23:23:42 10° WNW 23:26:53 44° N 23:29:24 15° ENE visible
27 Jul -2.2 01:00:15 10° WNW 01:02:01 29° WNW 01:02:01 29° WNW visible
27 Jul -2.7 22:31:26 10° WNW 22:34:36 44° N 22:37:47 10° ENE visible
28 Jul -3.7 00:08:05 10° WNW 00:11:23 69° NNE 00:11:24 69° NNE visible
28 Jul -2.8 21:39:08 10° W 21:42:19 47° N 21:45:31 10° ENE visible
28 Jul -3.2 23:15:54 10° WNW 23:19:08 54° NNE 23:20:49 25° E visible
29 Jul -1.5 00:52:28 10° WNW 00:53:27 18° W 00:53:27 18° W visible
29 Jul -2.8 22:23:40 10° WNW 22:26:52 46° N 22:30:03 10° E visible
30 Jul -3.4 00:00:13 10° WNW 00:02:53 54° W 00:02:53 54° W visible
30 Jul -3.8 23:08:00 10° WNW 23:11:17 78° NNE 23:12:21 40° E visible
31 Jul -1.0 00:44:49 10° W 00:44:59 11° W 00:44:59 11° W visible
31 Jul -3.3 22:15:47 10° WNW 22:19:02 58° NNE 22:21:50 13° E visible
31 Jul -2.4 23:52:22 10° WNW 23:54:29 30° WSW 23:54:29 30° WSW visible
01 Aug -3.8 23:00:04 10° WNW 23:03:19 62° SSW 23:03:59 47° SSE visible
